| time (UTC) | temp C | wind direction | speed KPH | gust KPH | rain 1hr cm | rain 24hr cm | rain mn cm | humidity % | barometer mb |
| 20260510140541 | 12 | 27 | 11.3 | 29.0 | 0.00 | 0.00 | 0.00 | 68 | 1015.6 |
| 20260510140050 | 12 | 11 | 11.3 | 29.0 | 0.00 | 0.00 | 0.00 | 68 | 1015.5 |
| 20260510135539 | 12 | 9 | 11.3 | 24.1 | 0.00 | 0.00 | 0.00 | 69 | 1015.6 |
| 20260510135039 | 12 | 35 | 8.0 | 25.7 | 0.00 | 0.00 | 0.00 | 69 | 1015.6 |
| 20260510134605 | 12 | 27 | 11.3 | 25.7 | 0.00 | 0.00 | 0.00 | 68 | 1015.6 |
| 20260510134041 | 12 | 9 | 9.7 | 24.1 | 0.00 | 0.00 | 0.00 | 69 | 1015.7 |
| 20260510133539 | 12 | 355 | 9.7 | 24.1 | 0.00 | 0.00 | 0.00 | 69 | 1015.6 |
| 20260510133052 | 12 | 5 | 8.0 | 25.7 | 0.00 | 0.00 | 0.00 | 70 | 1015.6 |
| 20260510132540 | 12 | 308 | 8.0 | 25.7 | 0.00 | 0.00 | 0.00 | 71 | 1015.7 |
| 20260510132043 | 12 | 36 | 11.3 | 27.4 | 0.00 | 0.00 | 0.00 | 71 | 1015.7 |
| 20260510131552 | 12 | 22 | 11.3 | 27.4 | 0.00 | 0.00 | 0.00 | 71 | 1015.8 |
| 20260510131041 | 12 | 33 | 11.3 | 22.5 | 0.00 | 0.00 | 0.00 | 71 | 1015.8 |
| 20260510130540 | 12 | 355 | 11.3 | 22.5 | 0.00 | 0.00 | 0.00 | 70 | 1015.8 |
| 20260510130051 | 12 | 34 | 11.3 | 24.1 | 0.00 | 0.00 | 0.00 | 69 | 1015.9 |
| 20260510125602 | 12 | 37 | 9.7 | 27.4 | 0.00 | 0.00 | 0.00 | 69 | 1015.9 |
| 20260510125039 | 13 | 18 | 9.7 | 33.8 | 0.00 | 0.00 | 0.00 | 69 | 1016.0 |
| 20260510124550 | 13 | 342 | 9.7 | 33.8 | 0.00 | 0.00 | 0.00 | 69 | 1016.0 |
| 20260510124043 | 13 | 340 | 9.7 | 30.6 | 0.00 | 0.00 | 0.00 | 70 | 1016.0 |
| 20260510123543 | 12 | 27 | 11.3 | 30.6 | 0.00 | 0.00 | 0.00 | 73 | 1016.0 |
| 20260510123051 | 12 | 343 | 12.9 | 33.8 | 0.00 | 0.00 | 0.00 | 73 | 1016.1 |
| 20260510122542 | 12 | 329 | 12.9 | 33.8 | 0.00 | 0.00 | 0.00 | 73 | 1016.3 |
| 20260510122041 | 12 | 46 | 14.5 | 33.8 | 0.00 | 0.00 | 0.00 | 73 | 1016.2 |
| 20260510121547 | 12 | 105 | 9.7 | 27.4 | 0.00 | 0.00 | 0.00 | 74 | 1016.2 |
| 20260510121040 | 12 | 39 | 8.0 | 27.4 | 0.00 | 0.00 | 0.00 | 74 | 1016.2 |
| 20260510120541 | 12 | 327 | 9.7 | 24.1 | 0.00 | 0.00 | 0.00 | 73 | 1016.3 |
| 20260510120047 | 12 | 340 | 9.7 | 22.5 | 0.00 | 0.00 | 0.00 | 73 | 1016.2 |
| 20260510115540 | 12 | 53 | 11.3 | 29.0 | 0.00 | 0.00 | 0.00 | 73 | 1016.2 |
| 20260510115040 | 12 | 20 | 11.3 | 29.0 | 0.00 | 0.00 | 0.00 | 74 | 1016.3 |
| 20260510114605 | 12 | 349 | 9.7 | 29.0 | 0.00 | 0.00 | 0.00 | 74 | 1016.4 |
| 20260510114039 | 12 | 5 | 8.0 | 27.4 | 0.00 | 0.00 | 0.00 | 74 | 1016.6 |
| 20260510113541 | 12 | 360 | 12.9 | 27.4 | 0.00 | 0.00 | 0.00 | 73 | 1016.5 |
| 20260510113057 | 12 | 360 | 11.3 | 27.4 | 0.00 | 0.00 | 0.00 | 73 | 1016.4 |
| 20260510112540 | 12 | 10 | 11.3 | 27.4 | 0.00 | 0.00 | 0.00 | 72 | 1016.5 |
| 20260510112042 | 13 | 42 | 9.7 | 25.7 | 0.00 | 0.00 | 0.00 | 71 | 1016.5 |
| 20260510111548 | 13 | 15 | 12.9 | 32.2 | 0.00 | 0.00 | 0.00 | 71 | 1016.5 |
| 20260510111041 | 13 | 347 | 12.9 | 32.2 | 0.00 | 0.00 | 0.00 | 71 | 1016.5 |
| 20260510110543 | 13 | 5 | 11.3 | 32.2 | 0.00 | 0.00 | 0.00 | 71 | 1016.6 |
| 20260510110049 | 13 | 21 | 11.3 | 27.4 | 0.00 | 0.00 | 0.00 | 70 | 1016.6 |
| 20260510105543 | 13 | 347 | 12.9 | 25.7 | 0.00 | 0.00 | 0.00 | 69 | 1016.7 |
| 20260510105042 | 14 | 344 | 9.7 | 25.7 | 0.00 | 0.00 | 0.00 | 68 | 1016.7 |
| 20260510104556 | 14 | 355 | 9.7 | 24.1 | 0.00 | 0.00 | 0.00 | 69 | 1016.8 |
| 20260510104040 | 13 | 327 | 11.3 | 29.0 | 0.00 | 0.00 | 0.00 | 69 | 1016.8 |
| 20260510103540 | 13 | 351 | 14.5 | 29.0 | 0.00 | 0.00 | 0.00 | 70 | 1016.7 |
| 20260510103046 | 13 | 31 | 11.3 | 29.0 | 0.00 | 0.00 | 0.00 | 70 | 1016.7 |
| 20260510102541 | 13 | 15 | 12.9 | 29.0 | 0.00 | 0.00 | 0.00 | 70 | 1016.8 |
| 20260510102042 | 13 | 14 | 14.5 | 29.0 | 0.00 | 0.00 | 0.00 | 70 | 1016.7 |
| 20260510101548 | 13 | 5 | 12.9 | 29.0 | 0.00 | 0.00 | 0.00 | 70 | 1016.7 |
| 20260510101040 | 13 | 15 | 12.9 | 24.1 | 0.00 | 0.00 | 0.00 | 70 | 1016.7 |
| 20260510100540 | 13 | 12 | 9.7 | 24.1 | 0.00 | 0.00 | 0.00 | 70 | 1016.7 |
| 20260510095541 | 14 | 78 | 12.9 | 30.6 | 0.00 | 0.00 | 0.00 | 68 | 1016.6 |
| 20260510095040 | 14 | 338 | 14.5 | 30.6 | 0.00 | 0.00 | 0.00 | 69 | 1016.8 |
| 20260510094557 | 15 | 30 | 14.5 | 30.6 | 0.00 | 0.00 | 0.00 | 69 | 1016.7 |
| 20260510094041 | 14 | 355 | 14.5 | 29.0 | 0.00 | 0.00 | 0.00 | 70 | 1016.7 |
| 20260510093541 | 13 | 40 | 11.3 | 32.2 | 0.00 | 0.00 | 0.00 | 72 | 1016.8 |
| 20260510093051 | 13 | 13 | 16.1 | 32.2 | 0.00 | 0.00 | 0.00 | 69 | 1016.9 |
| 20260510092540 | 14 | 57 | 14.5 | 25.7 | 0.00 | 0.00 | 0.00 | 68 | 1017.0 |
| 20260510092040 | 14 | 63 | 9.7 | 30.6 | 0.00 | 0.00 | 0.00 | 71 | 1016.8 |
| 20260510091548 | 13 | 22 | 14.5 | 37.0 | 0.00 | 0.00 | 0.00 | 73 | 1016.9 |
| 20260510091039 | 12 | 360 | 14.5 | 37.0 | 0.00 | 0.00 | 0.00 | 74 | 1017.0 |
| 20260510090543 | 12 | 24 | 12.9 | 32.2 | 0.00 | 0.00 | 0.00 | 74 | 1017.2 |
| 20260510090049 | 12 | 26 | 11.3 | 32.2 | 0.00 | 0.00 | 0.00 | 75 | 1017.3 |
| 20260510085540 | 11 | 53 | 12.9 | 27.4 | 0.00 | 0.00 | 0.00 | 75 | 1017.3 |
| 20260510085040 | 11 | 330 | 9.7 | 27.4 | 0.00 | 0.00 | 0.00 | 76 | 1017.3 |
| 20260510084550 | 11 | 17 | 11.3 | 27.4 | 0.00 | 0.00 | 0.00 | 76 | 1017.4 |
| 20260510084040 | 11 | 13 | 11.3 | 29.0 | 0.00 | 0.00 | 0.00 | 77 | 1017.4 |
| 20260510083540 | 11 | 30 | 8.0 | 29.0 | 0.00 | 0.00 | 0.00 | 77 | 1017.3 |
| 20260510083050 | 11 | 49 | 11.3 | 29.0 | 0.00 | 0.00 | 0.00 | 77 | 1017.4 |
| 20260510082540 | 11 | 42 | 11.3 | 22.5 | 0.00 | 0.00 | 0.00 | 77 | 1017.5 |
| 20260510082041 | 11 | 342 | 8.0 | 22.5 | 0.00 | 0.00 | 0.00 | 78 | 1017.6 |
| 20260510081550 | 11 | 19 | 9.7 | 30.6 | 0.00 | 0.00 | 0.00 | 78 | 1017.4 |
| 20260510081041 | 11 | 40 | 8.0 | 30.6 | 0.00 | 0.00 | 0.00 | 79 | 1017.5 |
| 20260510080540 | 11 | 11 | 11.3 | 30.6 | 0.00 | 0.00 | 0.00 | 79 | 1017.5 |
| 20260510080055 | 11 | 24 | 11.3 | 30.6 | 0.00 | 0.00 | 0.00 | 79 | 1017.4 |
| 20260510075541 | 11 | 19 | 9.7 | 20.9 | 0.00 | 0.00 | 0.00 | 79 | 1017.5 |
| 20260510075040 | 10 | 32 | 9.7 | 20.9 | 0.00 | 0.00 | 0.00 | 80 | 1017.5 |
| 20260510074559 | 10 | 20 | 6.4 | 20.9 | 0.00 | 0.00 | 0.00 | 80 | 1017.2 |
| 20260510074041 | 10 | 344 | 8.0 | 24.1 | 0.00 | 0.00 | 0.00 | 80 | 1017.4 |
| 20260510073540 | 10 | 340 | 3.2 | 24.1 | 0.00 | 0.00 | 0.00 | 81 | 1017.3 |
| 20260510073050 | 10 | 51 | 9.7 | 24.1 | 0.00 | 0.00 | 0.00 | 81 | 1017.4 |
| 20260510072542 | 10 | 323 | 8.0 | 24.1 | 0.00 | 0.00 | 0.00 | 81 | 1017.1 |
| 20260510072043 | 10 | 11 | 9.7 | 27.4 | 0.00 | 0.00 | 0.00 | 82 | 1017.5 |
| 20260510071547 | 10 | 21 | 9.7 | 27.4 | 0.00 | 0.00 | 0.00 | 82 | 1017.3 |
| 20260510071042 | 10 | 5 | 11.3 | 27.4 | 0.00 | 0.00 | 0.00 | 82 | 1017.4 |
| 20260510070540 | 10 | 32 | 8.0 | 25.7 | 0.00 | 0.00 | 0.00 | 82 | 1017.2 |
| 20260510065543 | 10 | 28 | 9.7 | 29.0 | 0.00 | 0.00 | 0.00 | 83 | 1017.1 |
| 20260510065041 | 10 | 54 | 11.3 | 29.0 | 0.00 | 0.00 | 0.00 | 83 | 1017.2 |
| 20260510064559 | 10 | 23 | 12.9 | 29.0 | 0.00 | 0.00 | 0.00 | 84 | 1017.1 |
| 20260510064040 | 10 | 43 | 8.0 | 27.4 | 0.00 | 0.00 | 0.00 | 84 | 1017.2 |
| 20260510063540 | 10 | 25 | 9.7 | 25.7 | 0.00 | 0.00 | 0.00 | 84 | 1017.1 |
| 20260510063054 | 10 | 344 | 8.0 | 25.7 | 0.00 | 0.00 | 0.00 | 85 | 1017.1 |
| 20260510062542 | 9 | 329 | 9.7 | 19.3 | 0.00 | 0.00 | 0.00 | 85 | 1017.0 |
| 20260510062042 | 9 | 339 | 4.8 | 24.1 | 0.00 | 0.00 | 0.00 | 85 | 1017.0 |
| 20260510061549 | 9 | 11 | 8.0 | 24.1 | 0.00 | 0.00 | 0.00 | 85 | 1016.9 |
| 20260510061042 | 9 | 352 | 9.7 | 24.1 | 0.00 | 0.00 | 0.00 | 85 | 1017.0 |
| 20260510060540 | 9 | 355 | 8.0 | 27.4 | 0.00 | 0.00 | 0.00 | 85 | 1016.9 |
| 20260510060056 | 9 | 350 | 8.0 | 27.4 | 0.00 | 0.00 | 0.00 | 85 | 1017.0 |
| 20260510055541 | 9 | 5 | 8.0 | 24.1 | 0.00 | 0.00 | 0.00 | 86 | 1016.9 |
| 20260510055040 | 9 | 35 | 11.3 | 25.7 | 0.00 | 0.00 | 0.00 | 86 | 1016.9 |
| 20260510054556 | 9 | 24 | 9.7 | 25.7 | 0.00 | 0.00 | 0.00 | 86 | 1016.9 |
| 20260510054039 | 9 | 350 | 6.4 | 25.7 | 0.00 | 0.00 | 0.00 | 86 | 1017.0 |
| 20260510053539 | 9 | 355 | 11.3 | 25.7 | 0.00 | 0.00 | 0.00 | 86 | 1017.0 |
| 20260510053050 | 9 | 24 | 9.7 | 25.7 | 0.00 | 0.00 | 0.00 | 86 | 1016.9 |
| 20260510052544 | 9 | 5 | 8.0 | 20.9 | 0.00 | 0.00 | 0.00 | 87 | 1016.9 |
| 20260510052041 | 9 | 40 | 8.0 | 24.1 | 0.00 | 0.00 | 0.00 | 87 | 1017.0 |
| 20260510051551 | 9 | 355 | 8.0 | 24.1 | 0.00 | 0.00 | 0.00 | 87 | 1017.0 |
| 20260510051040 | 9 | 333 | 9.7 | 24.1 | 0.00 | 0.00 | 0.00 | 87 | 1017.0 |
| 20260510050542 | 9 | 322 | 6.4 | 24.1 | 0.00 | 0.00 | 0.00 | 87 | 1017.0 |
| 20260510050046 | 9 | 346 | 8.0 | 22.5 | 0.00 | 0.00 | 0.00 | 87 | 1016.8 |
| 20260510045541 | 9 | 340 | 8.0 | 24.1 | 0.00 | 0.00 | 0.00 | 87 | 1016.8 |
| 20260510045041 | 8 | 17 | 6.4 | 24.1 | 0.00 | 0.00 | 0.00 | 87 | 1016.8 |
| 20260510044600 | 8 | 19 | 6.4 | 22.5 | 0.00 | 0.00 | 0.00 | 87 | 1016.9 |
| 20260510044040 | 8 | 346 | 8.0 | 22.5 | 0.00 | 0.00 | 0.00 | 87 | 1016.8 |
| 20260510043540 | 8 | 5 | 9.7 | 20.9 | 0.00 | 0.00 | 0.00 | 87 | 1016.7 |
| 20260510043051 | 8 | 28 | 6.4 | 20.9 | 0.00 | 0.00 | 0.00 | 87 | 1016.8 |
| 20260510042541 | 8 | 319 | 9.7 | 24.1 | 0.00 | 0.00 | 0.00 | 87 | 1016.8 |
| 20260510042043 | 8 | 343 | 9.7 | 24.1 | 0.00 | 0.00 | 0.00 | 87 | 1016.8 |
| 20260510041553 | 8 | 360 | 8.0 | 24.1 | 0.00 | 0.00 | 0.00 | 87 | 1017.0 |
| 20260510041040 | 8 | 5 | 8.0 | 22.5 | 0.00 | 0.00 | 0.00 | 87 | 1017.0 |
| 20260510040542 | 8 | 36 | 8.0 | 20.9 | 0.00 | 0.00 | 0.00 | 87 | 1017.0 |
| 20260510040055 | 8 | 34 | 6.4 | 20.9 | 0.00 | 0.00 | 0.00 | 87 | 1017.0 |
| 20260510035540 | 8 | 343 | 9.7 | 20.9 | 0.00 | 0.00 | 0.00 | 87 | 1017.0 |
| 20260510035043 | 8 | 360 | 3.2 | 17.7 | 0.00 | 0.00 | 0.00 | 87 | 1017.1 |
| 20260510034551 | 8 | 71 | 6.4 | 17.7 | 0.00 | 0.00 | 0.00 | 87 | 1017.1 |
| 20260510034041 | 8 | 13 | 3.2 | 17.7 | 0.00 | 0.00 | 0.00 | 87 | 1017.1 |
| 20260510033539 | 8 | 344 | 4.8 | 17.7 | 0.00 | 0.00 | 0.00 | 87 | 1017.2 |
| 20260510033115 | 8 | 14 | 4.8 | 16.1 | 0.00 | 0.00 | 0.00 | 88 | 1017.2 |
| 20260510032543 | 8 | 17 | 4.8 | 17.7 | 0.00 | 0.00 | 0.00 | 87 | 1017.3 |
| 20260510032040 | 8 | 83 | 4.8 | 17.7 | 0.00 | 0.00 | 0.00 | 88 | 1017.3 |
| 20260510031554 | 8 | 9 | 4.8 | 17.7 | 0.00 | 0.00 | 0.00 | 87 | 1017.3 |
| 20260510031041 | 8 | 323 | 6.4 | 17.7 | 0.00 | 0.00 | 0.00 | 87 | 1017.3 |
| 20260510030537 | 8 | 303 | 4.8 | 20.9 | 0.00 | 0.00 | 0.00 | 87 | 1017.3 |
| 20260510030052 | 8 | 51 | 6.4 | 20.9 | 0.00 | 0.00 | 0.00 | 87 | 1017.3 |
| 20260510025537 | 8 | 5 | 6.4 | 16.1 | 0.00 | 0.00 | 0.00 | 87 | 1017.5 |
| 20260510025041 | 8 | 25 | 4.8 | 17.7 | 0.00 | 0.00 | 0.00 | 87 | 1017.5 |
| 20260510024552 | 8 | 324 | 6.4 | 19.3 | 0.00 | 0.00 | 0.00 | 87 | 1017.5 |
| 20260510024042 | 8 | 323 | 8.0 | 19.3 | 0.00 | 0.00 | 0.00 | 87 | 1017.5 |
| 20260510023541 | 8 | 12 | 8.0 | 16.1 | 0.00 | 0.00 | 0.00 | 87 | 1017.4 |
| 20260510023047 | 8 | 16 | 6.4 | 19.3 | 0.00 | 0.00 | 0.00 | 87 | 1017.4 |
| 20260510022543 | 8 | 10 | 4.8 | 19.3 | 0.00 | 0.00 | 0.00 | 87 | 1017.4 |
| 20260510022041 | 8 | 337 | 9.7 | 19.3 | 0.00 | 0.00 | 0.00 | 87 | 1017.4 |
| 20260510021550 | 8 | 22 | 4.8 | 20.9 | 0.00 | 0.00 | 0.00 | 86 | 1017.3 |
| 20260510021043 | 8 | 336 | 8.0 | 20.9 | 0.00 | 0.00 | 0.00 | 86 | 1017.4 |
| 20260510020541 | 8 | 24 | 6.4 | 20.9 | 0.00 | 0.00 | 0.00 | 86 | 1017.4 |
| 20260510020051 | 8 | 346 | 9.7 | 19.3 | 0.00 | 0.00 | 0.00 | 86 | 1017.4 |
| 20260510015540 | 9 | 38 | 6.4 | 17.7 | 0.00 | 0.00 | 0.00 | 86 | 1017.5 |
| 20260510015046 | 9 | 11 | 6.4 | 19.3 | 0.00 | 0.00 | 0.00 | 85 | 1017.5 |
| 20260510014602 | 9 | 296 | 6.4 | 19.3 | 0.00 | 0.00 | 0.00 | 85 | 1017.7 |
| 20260510014041 | 9 | 348 | 8.0 | 19.3 | 0.00 | 0.00 | 0.00 | 85 | 1017.7 |
| 20260510013542 | 9 | 344 | 4.8 | 17.7 | 0.00 | 0.00 | 0.00 | 84 | 1017.7 |
| 20260510013051 | 9 | 16 | 3.2 | 17.7 | 0.00 | 0.00 | 0.00 | 84 | 1017.7 |
| 20260510012540 | 9 | 11 | 6.4 | 14.5 | 0.00 | 0.00 | 0.00 | 84 | 1017.7 |
| 20260510012043 | 9 | 360 | 3.2 | 14.5 | 0.00 | 0.00 | 0.00 | 84 | 1017.7 |
| 20260510011557 | 9 | 302 | 4.8 | 17.7 | 0.00 | 0.00 | 0.00 | 83 | 1017.6 |
| 20260510011044 | 9 | 17 | 4.8 | 17.7 | 0.00 | 0.00 | 0.00 | 83 | 1017.5 |
| 20260510010540 | 9 | 344 | 3.2 | 17.7 | 0.00 | 0.00 | 0.00 | 82 | 1017.5 |
| 20260510010058 | 10 | 57 | 3.2 | 14.5 | 0.00 | 0.00 | 0.00 | 82 | 1017.6 |
| 20260510005541 | 10 | 5 | 3.2 | 17.7 | 0.00 | 0.00 | 0.00 | 81 | 1017.6 |
| 20260510005043 | 10 | 355 | 3.2 | 17.7 | 0.00 | 0.00 | 0.00 | 80 | 1017.6 |
| 20260510004555 | 10 | 355 | 6.4 | 16.1 | 0.00 | 0.00 | 0.00 | 79 | 1017.6 |
| 20260510004041 | 10 | 333 | 4.8 | 16.1 | 0.00 | 0.00 | 0.00 | 78 | 1017.6 |
| 20260510003541 | 10 | 346 | 3.2 | 14.5 | 0.00 | 0.00 | 0.00 | 76 | 1017.6 |
| 20260510003054 | 10 | 338 | 4.8 | 14.5 | 0.00 | 0.00 | 0.00 | 75 | 1017.6 |
| 20260510002540 | 10 | 34 | 4.8 | 12.9 | 0.00 | 0.00 | 0.00 | 73 | 1017.7 |
| 20260510002040 | 10 | 17 | 6.4 | 14.5 | 0.00 | 0.00 | 0.00 | 72 | 1017.6 |
| 20260510001550 | 10 | 346 | 6.4 | 16.1 | 0.00 | 0.00 | 0.00 | 70 | 1017.7 |
| 20260510001040 | 10 | 9 | 4.8 | 22.5 | 0.00 | 0.00 | 0.00 | 70 | 1017.7 |
| 20260510000541 | 10 | 331 | 6.4 | 22.5 | 0.00 | 0.00 | 0.00 | 69 | 1017.7 |
| 20260510000057 | 11 | 19 | 9.7 | 20.9 | 0.00 | 0.00 | 0.00 | 67 | 1017.6 |
| 20260509235543 | 11 | 351 | 3.2 | 14.5 | 0.00 | 0.00 | 0.00 | 66 | 1017.6 |
| 20260509235040 | 11 | 20 | 6.4 | 20.9 | 0.00 | 0.00 | 0.00 | 66 | 1017.5 |
| 20260509234603 | 11 | 321 | 6.4 | 20.9 | 0.00 | 0.00 | 0.00 | 66 | 1017.6 |
| 20260509234040 | 11 | 360 | 11.3 | 20.9 | 0.00 | 0.00 | 0.00 | 65 | 1017.5 |
| 20260509233542 | 11 | 344 | 8.0 | 19.3 | 0.00 | 0.00 | 0.00 | 65 | 1017.5 |
| 20260509233048 | 11 | 28 | 6.4 | 19.3 | 0.00 | 0.00 | 0.00 | 66 | 1017.5 |
| 20260509232540 | 11 | 347 | 8.0 | 19.3 | 0.00 | 0.00 | 0.00 | 66 | 1017.6 |
| 20260509232040 | 12 | 344 | 4.8 | 14.5 | 0.00 | 0.00 | 0.00 | 65 | 1017.4 |
| 20260509231550 | 12 | 5 | 6.4 | 14.5 | 0.00 | 0.00 | 0.00 | 64 | 1017.5 |
| 20260509231039 | 12 | 20 | 6.4 | 17.7 | 0.00 | 0.00 | 0.00 | 64 | 1017.5 |
| 20260509230540 | 12 | 17 | 4.8 | 17.7 | 0.00 | 0.00 | 0.00 | 64 | 1017.6 |
| 20260509230054 | 12 | 5 | 8.0 | 17.7 | 0.00 | 0.00 | 0.00 | 64 | 1017.6 |
| 20260509225544 | 12 | 342 | 6.4 | 17.7 | 0.00 | 0.00 | 0.00 | 63 | 1017.5 |
| 20260509225039 | 12 | 20 | 6.4 | 16.1 | 0.00 | 0.00 | 0.00 | 63 | 1017.5 |
| 20260509224552 | 12 | 13 | 4.8 | 12.9 | 0.00 | 0.00 | 0.00 | 62 | 1017.5 |
| 20260509224039 | 12 | 14 | 4.8 | 12.9 | 0.00 | 0.00 | 0.00 | 61 | 1017.5 |
| 20260509223544 | 12 | 355 | 4.8 | 12.9 | 0.00 | 0.00 | 0.00 | 61 | 1017.4 |
| 20260509223055 | 12 | 16 | 4.8 | 12.9 | 0.00 | 0.00 | 0.00 | 61 | 1017.3 |
| 20260509222540 | 12 | 18 | 3.2 | 9.7 | 0.00 | 0.00 | 0.00 | 60 | 1017.2 |
| 20260509222040 | 12 | 10 | 3.2 | 9.7 | 0.00 | 0.00 | 0.00 | 60 | 1017.2 |
| 20260509221550 | 12 | 355 | 3.2 | 8.0 | 0.00 | 0.00 | 0.00 | 59 | 1017.2 |
| 20260509221039 | 12 | 338 | 3.2 | 12.9 | 0.00 | 0.00 | 0.00 | 59 | 1017.3 |
| 20260509220540 | 12 | 18 | 3.2 | 12.9 | 0.00 | 0.00 | 0.00 | 59 | 1017.3 |
| 20260509220059 | 13 | 18 | 4.8 | 11.3 | 0.00 | 0.00 | 0.00 | 59 | 1017.4 |
| 20260509215540 | 13 | 28 | 3.2 | 8.0 | 0.00 | 0.00 | 0.00 | 58 | 1017.4 |
| 20260509215043 | 13 | 0 | 1.6 | 8.0 | 0.00 | 0.00 | 0.00 | 57 | 1017.3 |
| 20260509214551 | 13 | 51 | 1.6 | 8.0 | 0.00 | 0.00 | 0.00 | 56 | 1017.4 |
| 20260509214040 | 13 | 24 | 3.2 | 9.7 | 0.00 | 0.00 | 0.00 | 56 | 1017.3 |
| 20260509213541 | 13 | 45 | 3.2 | 9.7 | 0.00 | 0.00 | 0.00 | 55 | 1017.2 |
| 20260509213043 | 13 | 14 | 3.2 | 8.0 | 0.00 | 0.00 | 0.00 | 55 | 1017.2 |
| 20260509212539 | 13 | 36 | 3.2 | 9.7 | 0.00 | 0.00 | 0.00 | 55 | 1017.2 |
| 20260509212040 | 13 | 39 | 4.8 | 19.3 | 0.00 | 0.00 | 0.00 | 54 | 1017.1 |
| 20260509211550 | 14 | 32 | 6.4 | 19.3 | 0.00 | 0.00 | 0.00 | 53 | 1017.1 |
| 20260509211040 | 14 | 360 | 6.4 | 19.3 | 0.00 | 0.00 | 0.00 | 53 | 1017.0 |
| 20260509210540 | 14 | 30 | 3.2 | 11.3 | 0.00 | 0.00 | 0.00 | 53 | 1017.0 |
| 20260509210047 | 14 | 34 | 3.2 | 11.3 | 0.00 | 0.00 | 0.00 | 52 | 1017.0 |
| 20260509205540 | 14 | 22 | 3.2 | 14.5 | 0.00 | 0.00 | 0.00 | 51 | 1016.9 |
| 20260509205040 | 15 | 45 | 4.8 | 16.1 | 0.00 | 0.00 | 0.00 | 51 | 1017.0 |
| 20260509204559 | 15 | 50 | 6.4 | 16.1 | 0.00 | 0.00 | 0.00 | 50 | 1016.9 |
| 20260509204040 | 15 | 42 | 4.8 | 20.9 | 0.00 | 0.00 | 0.00 | 50 | 1016.8 |
| 20260509203540 | 15 | 11 | 6.4 | 20.9 | 0.00 | 0.00 | 0.00 | 50 | 1016.9 |
| 20260509203050 | 15 | 93 | 9.7 | 20.9 | 0.00 | 0.00 | 0.00 | 49 | 1016.8 |
| 20260509202545 | 15 | 17 | 6.4 | 16.1 | 0.00 | 0.00 | 0.00 | 50 | 1016.7 |
| 20260509202044 | 15 | 17 | 6.4 | 16.1 | 0.00 | 0.00 | 0.00 | 49 | 1016.6 |
| 20260509201550 | 15 | 22 | 4.8 | 16.1 | 0.00 | 0.00 | 0.00 | 49 | 1016.6 |
| 20260509201042 | 15 | 14 | 6.4 | 16.1 | 0.00 | 0.00 | 0.00 | 48 | 1016.5 |
| 20260509200542 | 15 | 28 | 6.4 | 17.7 | 0.00 | 0.00 | 0.00 | 49 | 1016.3 |
| 20260509200053 | 15 | 355 | 8.0 | 17.7 | 0.00 | 0.00 | 0.00 | 48 | 1016.3 |
| 20260509195540 | 15 | 32 | 8.0 | 17.7 | 0.00 | 0.00 | 0.00 | 49 | 1016.3 |
| 20260509195042 | 15 | 52 | 6.4 | 16.1 | 0.00 | 0.00 | 0.00 | 49 | 1016.2 |
| 20260509194549 | 16 | 17 | 4.8 | 19.3 | 0.00 | 0.00 | 0.00 | 49 | 1016.3 |
| 20260509194040 | 16 | 23 | 6.4 | 19.3 | 0.00 | 0.00 | 0.00 | 49 | 1016.1 |
| 20260509193540 | 16 | 72 | 6.4 | 17.7 | 0.00 | 0.00 | 0.00 | 49 | 1016.1 |
| 20260509193052 | 16 | 56 | 6.4 | 17.7 | 0.00 | 0.00 | 0.00 | 49 | 1016.1 |
| 20260509192543 | 16 | 70 | 4.8 | 16.1 | 0.00 | 0.00 | 0.00 | 50 | 1016.1 |
| 20260509192040 | 16 | 72 | 4.8 | 14.5 | 0.00 | 0.00 | 0.00 | 50 | 1016.0 |
| 20260509191555 | 16 | 99 | 4.8 | 14.5 | 0.00 | 0.00 | 0.00 | 49 | 1015.9 |
| 20260509191042 | 16 | 53 | 6.4 | 20.9 | 0.00 | 0.00 | 0.00 | 49 | 1015.9 |
| 20260509190540 | 16 | 78 | 8.0 | 20.9 | 0.00 | 0.00 | 0.00 | 48 | 1015.8 |
| 20260509190057 | 17 | 73 | 6.4 | 20.9 | 0.00 | 0.00 | 0.00 | 49 | 1015.9 |
| 20260509185543 | 17 | 76 | 6.4 | 17.7 | 0.00 | 0.00 | 0.00 | 50 | 1015.9 |
| 20260509185041 | 17 | 53 | 6.4 | 19.3 | 0.00 | 0.00 | 0.00 | 50 | 1015.8 |
| 20260509184546 | 17 | 63 | 4.8 | 19.3 | 0.00 | 0.00 | 0.00 | 51 | 1015.8 |
| 20260509184039 | 17 | 115 | 6.4 | 12.9 | 0.00 | 0.00 | 0.00 | 51 | 1015.8 |
| 20260509183540 | 17 | 82 | 4.8 | 14.5 | 0.00 | 0.00 | 0.00 | 51 | 1015.7 |
| 20260509183054 | 17 | 69 | 3.2 | 14.5 | 0.00 | 0.00 | 0.00 | 51 | 1015.7 |
| 20260509182541 | 18 | 63 | 6.4 | 19.3 | 0.00 | 0.00 | 0.00 | 51 | 1015.7 |
| 20260509182040 | 18 | 80 | 8.0 | 19.3 | 0.00 | 0.00 | 0.00 | 50 | 1015.6 |
| 20260509181602 | 18 | 86 | 6.4 | 17.7 | 0.00 | 0.00 | 0.00 | 49 | 1015.6 |
| 20260509181040 | 18 | 50 | 3.2 | 16.1 | 0.00 | 0.00 | 0.00 | 50 | 1015.6 |
| 20260509180543 | 18 | 53 | 4.8 | 16.1 | 0.00 | 0.00 | 0.00 | 49 | 1015.5 |
| 20260509180053 | 18 | 59 | 6.4 | 20.9 | 0.00 | 0.00 | 0.00 | 50 | 1015.7 |
| 20260509175540 | 18 | 64 | 6.4 | 20.9 | 0.00 | 0.00 | 0.00 | 49 | 1015.6 |
| 20260509175044 | 18 | 51 | 6.4 | 20.9 | 0.00 | 0.00 | 0.00 | 49 | 1015.5 |
| 20260509174557 | 18 | 82 | 4.8 | 17.7 | 0.00 | 0.00 | 0.00 | 49 | 1015.4 |
| 20260509174043 | 18 | 70 | 6.4 | 19.3 | 0.00 | 0.00 | 0.00 | 48 | 1015.4 |
| 20260509173542 | 19 | 94 | 8.0 | 19.3 | 0.00 | 0.00 | 0.00 | 48 | 1015.3 |
| 20260509173057 | 19 | 75 | 6.4 | 16.1 | 0.00 | 0.00 | 0.00 | 48 | 1015.3 |
| 20260509172540 | 20 | 55 | 4.8 | 16.1 | 0.00 | 0.00 | 0.00 | 47 | 1015.2 |
| 20260509172041 | 20 | 46 | 3.2 | 16.1 | 0.00 | 0.00 | 0.00 | 48 | 1015.2 |
| 20260509171552 | 20 | 67 | 6.4 | 16.1 | 0.00 | 0.00 | 0.00 | 47 | 1015.3 |
| 20260509171043 | 20 | 74 | 6.4 | 16.1 | 0.00 | 0.00 | 0.00 | 47 | 1015.3 |
| 20260509170540 | 20 | 80 | 6.4 | 16.1 | 0.00 | 0.00 | 0.00 | 47 | 1015.3 |
| 20260509170046 | 20 | 53 | 8.0 | 16.1 | 0.00 | 0.00 | 0.00 | 46 | 1015.4 |
| 20260509165540 | 20 | 75 | 6.4 | 17.7 | 0.00 | 0.00 | 0.00 | 47 | 1015.4 |
| 20260509165043 | 20 | 77 | 8.0 | 17.7 | 0.00 | 0.00 | 0.00 | 47 | 1015.3 |
| 20260509164550 | 20 | 90 | 6.4 | 20.9 | 0.00 | 0.00 | 0.00 | 47 | 1015.3 |
| 20260509164043 | 20 | 94 | 8.0 | 20.9 | 0.00 | 0.00 | 0.00 | 48 | 1015.3 |
| 20260509163543 | 20 | 60 | 8.0 | 17.7 | 0.00 | 0.00 | 0.00 | 47 | 1015.2 |
| 20260509163103 | 20 | 92 | 4.8 | 16.1 | 0.00 | 0.00 | 0.00 | 47 | 1015.2 |
| 20260509162543 | 20 | 88 | 6.4 | 17.7 | 0.00 | 0.00 | 0.00 | 48 | 1015.2 |
| 20260509162040 | 20 | 102 | 6.4 | 17.7 | 0.00 | 0.00 | 0.00 | 47 | 1015.2 |
| 20260509161552 | 20 | 76 | 6.4 | 17.7 | 0.00 | 0.00 | 0.00 | 48 | 1015.2 |
| 20260509161041 | 20 | 78 | 4.8 | 17.7 | 0.00 | 0.00 | 0.00 | 49 | 1015.4 |
| 20260509160540 | 20 | 71 | 4.8 | 19.3 | 0.00 | 0.00 | 0.00 | 48 | 1015.5 |
| 20260509160057 | 20 | 36 | 6.4 | 19.3 | 0.00 | 0.00 | 0.00 | 48 | 1015.5 |
| 20260509155540 | 20 | 49 | 4.8 | 27.4 | 0.00 | 0.00 | 0.00 | 48 | 1015.5 |
| 20260509155040 | 20 | 91 | 6.4 | 27.4 | 0.00 | 0.00 | 0.00 | 46 | 1015.6 |
| 20260509154600 | 20 | 27 | 4.8 | 16.1 | 0.00 | 0.00 | 0.00 | 49 | 1015.6 |
| 20260509154039 | 20 | 82 | 3.2 | 17.7 | 0.00 | 0.00 | 0.00 | 47 | 1015.6 |
| 20260509153539 | 20 | 82 | 4.8 | 17.7 | 0.00 | 0.00 | 0.00 | 46 | 1015.7 |
| 20260509153054 | 20 | 65 | 3.2 | 12.9 | 0.00 | 0.00 | 0.00 | 50 | 1015.7 |
| 20260509152540 | 20 | 63 | 3.2 | 11.3 | 0.00 | 0.00 | 0.00 | 47 | 1015.8 |
| 20260509152041 | 20 | 86 | 3.2 | 11.3 | 0.00 | 0.00 | 0.00 | 46 | 1015.8 |
| 20260509151553 | 20 | 35 | 4.8 | 16.1 | 0.00 | 0.00 | 0.00 | 45 | 1015.7 |
| 20260509151040 | 20 | 44 | 6.4 | 16.1 | 0.00 | 0.00 | 0.00 | 44 | 1015.7 |
| 20260509150539 | 20 | 65 | 6.4 | 16.1 | 0.00 | 0.00 | 0.00 | 43 | 1015.6 |
| 20260509150050 | 20 | 83 | 3.2 | 11.3 | 0.00 | 0.00 | 0.00 | 44 | 1015.6 |
| 20260509145542 | 20 | 0 | 3.2 | 19.3 | 0.00 | 0.00 | 0.00 | 44 | 1015.6 |
| 20260509145040 | 21 | 42 | 6.4 | 19.3 | 0.00 | 0.00 | 0.00 | 43 | 1015.6 |
| 20260509144605 | 21 | 61 | 6.4 | 19.3 | 0.00 | 0.00 | 0.00 | 43 | 1015.6 |
| 20260509144040 | 21 | 5 | 6.4 | 17.7 | 0.00 | 0.00 | 0.00 | 43 | 1015.6 |
| 20260509143540 | 21 | 334 | 4.8 | 11.3 | 0.00 | 0.00 | 0.00 | 47 | 1015.5 |
| 20260509143056 | 21 | 54 | 4.8 | 20.9 | 0.00 | 0.00 | 0.00 | 45 | 1015.4 |
| 20260509142540 | 21 | 355 | 6.4 | 20.9 | 0.00 | 0.00 | 0.00 | 43 | 1015.4 |
| 20260509142040 | 22 | 26 | 4.8 | 19.3 | 0.00 | 0.00 | 0.00 | 45 | 1015.2 |
| 20260509141555 | 22 | 78 | 4.8 | 19.3 | 0.00 | 0.00 | 0.00 | 43 | 1015.2 |
| 20260509141040 | 21 | 74 | 4.8 | 19.3 | 0.00 | 0.00 | 0.00 | 42 | 1015.3 |